Weather History for KPVD - November, 2012

Change the Weather History Date:

Saturday, November 10, 2012

  Actual Average Record
Temperature  
Mean Temperature 48 °F 46 °F  
Max Temperature 57 °F 55 °F 73 °F (1999)
Min Temperature 38 °F 37 °F 22 °F (1956)
Degree Days  
Heating Degree Days 17 19  
Month to date heating degree days 215 175  
Since 1 July heating degree days 559 633  
Cooling Degree Days 0 0  
Month to date cooling degree days 0 0  
Year to date cooling degree days 834 744  
Moisture  
Dew Point 33 °F    
Average Humidity 67    
Maximum Humidity 92    
Minimum Humidity 41    
Precipitation  
Precipitation 0.00 in 0.15 in 1.83 in (2000)
Month to date precipitation 0.42 1.41  
Year to date precipitation 35.15 39.86  
Snow  
Snow 0.00 in 0.10 in T in (1987)
Month to date snowfall 1.3 0.2  
Since 1 July snowfall 1.3 0.2  
Since 1 September snowfall 1.3 0.2  
Snow Depth 0.00 in    
Sea Level Pressure  
Sea Level Pressure 30.30 in    
Wind  
Wind Speed 5 mph (West)    
Max Wind Speed 12 mph    
Max Gust Speed 15 mph    
Visibility 10 miles    
Events      
T = Trace of Precipitation, MM = Missing Value Source: NWS Daily Summary

Daily Weather History Graph

Daily Weather History Graph

Search for Another Location

Airport or City:

Trip Planner

Search our weather history database for the weather conditions in past years. The results will help you decide how hot, cold, wet, or windy it might be!

Date:

Astronomy

Nov. 10, 2012 Rise Set
Actual Time 6:29 AM EST 4:29 PM EST
Civil Twilight 5:59 AM EST 4:59 PM EST
Nautical Twilight 5:26 AM EST 5:32 PM EST
Astronomical Twilight 4:53 AM EST 6:05 PM EST
Moon 2:28 AM EST (11/10) 2:17 PM EST (11/10)
Length of Visible Light 10h 59m
Length of Day
10h 00m
Waning Crescent, 14% of the Moon is Illuminated
Nov 10
Waning Crescent
Nov 13
New
Nov 20
First Quarter
Nov 28
Full
Dec 6
Last Quarter

Hourly Weather History & Observations

Time (EST) Temp. Windchill Dew Point Humidity Pressure Visibility Wind Dir Wind Speed Gust Speed Precip Events Conditions
12:51 AM 39.0 °F 34.0 °F 25.0 °F 57% 30.14 in 10.0 mi West 6.9 mph - N/A   Clear
1:51 AM 37.4 °F 32.8 °F 26.6 °F 65% 30.15 in 10.0 mi West 5.8 mph - N/A   Scattered Clouds
2:51 AM 41.0 °F 36.4 °F 30.9 °F 67% 30.16 in 10.0 mi West 6.9 mph - N/A   Overcast
3:51 AM 43.0 °F 39.5 °F 33.1 °F 68% 30.17 in 10.0 mi West 5.8 mph - N/A   Overcast
4:51 AM 39.0 °F 35.7 °F 32.0 °F 76% 30.19 in 10.0 mi WSW 4.6 mph - N/A   Scattered Clouds
5:51 AM 37.9 °F 32.7 °F 32.0 °F 79% 30.21 in 10.0 mi West 6.9 mph - N/A   Partly Cloudy
6:51 AM 39.0 °F 34.0 °F 33.1 °F 79% 30.23 in 9.0 mi West 6.9 mph - N/A   Scattered Clouds
7:51 AM 44.1 °F 39.5 °F 35.1 °F 71% 30.26 in 10.0 mi West 8.1 mph - N/A   Scattered Clouds
8:51 AM 48.9 °F - 36.0 °F 61% 30.29 in 10.0 mi Variable 4.6 mph - N/A   Partly Cloudy
9:51 AM 51.1 °F - 34.0 °F 52% 30.29 in 10.0 mi NNW 8.1 mph - N/A   Partly Cloudy
10:51 AM 52.0 °F - 33.1 °F 49% 30.29 in 10.0 mi North 10.4 mph - N/A   Partly Cloudy
11:51 AM 53.1 °F - 33.1 °F 47% 30.29 in 10.0 mi NE 4.6 mph - N/A   Partly Cloudy
12:51 PM 55.0 °F - 33.1 °F 43% 30.29 in 10.0 mi North 6.9 mph - N/A   Partly Cloudy
1:51 PM 55.0 °F - 32.0 °F 42% 30.29 in 10.0 mi Variable 3.5 mph - N/A   Partly Cloudy
2:51 PM 55.0 °F - 32.0 °F 42% 30.30 in 10.0 mi ENE 3.5 mph - N/A   Scattered Clouds
3:51 PM 53.1 °F - 30.9 °F 43% 30.32 in 10.0 mi ESE 4.6 mph - N/A   Scattered Clouds
4:51 PM 48.0 °F - 33.1 °F 56% 30.35 in 10.0 mi South 5.8 mph - N/A   Mostly Cloudy
5:51 PM 46.0 °F - 34.0 °F 63% 30.38 in 10.0 mi Calm Calm - N/A   Mostly Cloudy
6:51 PM 44.1 °F - 34.0 °F 68% 30.40 in 10.0 mi Calm Calm - N/A   Partly Cloudy
7:51 PM 42.1 °F 40.2 °F 36.0 °F 79% 30.42 in 10.0 mi ESE 3.5 mph - N/A   Partly Cloudy
8:51 PM 41.0 °F - 36.0 °F 82% 30.43 in 10.0 mi Calm Calm - N/A   Scattered Clouds
9:51 PM 43.0 °F - 37.0 °F 80% 30.45 in 10.0 mi Calm Calm - N/A   Partly Cloudy
10:51 PM 39.9 °F - 37.0 °F 89% 30.45 in 10.0 mi Calm Calm - N/A   Partly Cloudy
11:51 PM 39.0 °F - 36.0 °F 89% 30.46 in 10.0 mi Calm Calm - N/A   Mostly Cloudy